| time (UTC) | temp C | wind direction | speed KPH | gust KPH | rain 1hr cm | rain 24hr cm | rain mn cm | humidity % | barometer mb |
| 20260504202340 | 23 | 243 | 8.0 | 35.4 | 0.00 | 0.00 | 0.00 | 31 | 999.2 |
| 20260504201340 | 23 | 193 | 8.0 | 29.0 | 0.00 | 0.00 | 0.00 | 31 | 999.3 |
| 20260504200339 | 23 | 259 | 6.4 | 29.0 | 0.00 | 0.00 | 0.00 | 30 | 999.3 |
| 20260504195338 | 23 | 48 | 11.3 | 32.2 | 0.00 | 0.00 | 0.00 | 31 | 999.5 |
| 20260504194341 | 23 | 174 | 8.0 | 19.3 | 0.00 | 0.00 | 0.00 | 30 | 999.5 |
| 20260504193334 | 23 | 262 | 11.3 | 40.2 | 0.00 | 0.00 | 0.00 | 27 | 999.5 |
| 20260504192335 | 23 | 271 | 8.0 | 35.4 | 0.00 | 0.00 | 0.00 | 27 | 999.7 |
| 20260504191336 | 23 | 330 | 6.4 | 14.5 | 0.00 | 0.00 | 0.00 | 27 | 999.7 |
| 20260504190332 | 23 | 248 | 8.0 | 35.4 | 0.00 | 0.00 | 0.00 | 27 | 999.9 |
| 20260504185332 | 23 | 148 | 8.0 | 37.0 | 0.00 | 0.00 | 0.00 | 28 | 999.9 |
| 20260504184333 | 23 | 230 | 6.4 | 25.7 | 0.00 | 0.00 | 0.00 | 29 | 1000.1 |
| 20260504183332 | 23 | 253 | 8.0 | 29.0 | 0.00 | 0.00 | 0.00 | 30 | 1000.2 |
| 20260504182331 | 23 | 235 | 11.3 | 29.0 | 0.00 | 0.00 | 0.00 | 33 | 1000.1 |
| 20260504181330 | 23 | 257 | 11.3 | 35.4 | 0.00 | 0.00 | 0.00 | 33 | 1000.2 |
| 20260504180331 | 23 | 205 | 8.0 | 29.0 | 0.00 | 0.00 | 0.00 | 33 | 1000.5 |
| 20260504175332 | 22 | 269 | 8.0 | 32.2 | 0.00 | 0.00 | 0.00 | 34 | 1000.4 |
| 20260504174329 | 22 | 155 | 11.3 | 35.4 | 0.00 | 0.00 | 0.00 | 36 | 1000.7 |
| 20260504173332 | 22 | 190 | 8.0 | 29.0 | 0.00 | 0.00 | 0.00 | 37 | 1000.9 |
| 20260504172333 | 22 | 152 | 8.0 | 32.2 | 0.00 | 0.00 | 0.00 | 37 | 1000.9 |
| 20260504171332 | 22 | 254 | 8.0 | 25.7 | 0.00 | 0.00 | 0.00 | 36 | 1001.2 |
| 20260504170335 | 22 | 321 | 6.4 | 25.7 | 0.00 | 0.00 | 0.00 | 36 | 1001.3 |
| 20260504160339 | 20 | 170 | 6.4 | 19.3 | 0.00 | 0.00 | 0.00 | 48 | 1002.3 |
| 20260504150332 | 17 | 196 | 6.4 | 25.7 | 0.00 | 0.00 | 0.00 | 57 | 1002.8 |
| 20260504141332 | 15 | 252 | 6.4 | 14.5 | 0.00 | 0.00 | 0.00 | 63 | 1003.0 |
| 20260504140328 | 15 | 212 | 6.4 | 17.7 | 0.00 | 0.00 | 0.00 | 64 | 1003.1 |
| 20260504130324 | 12 | 240 | 6.4 | 22.5 | 0.00 | 0.00 | 0.00 | 71 | 1003.6 |
| 20260504120317 | 10 | 207 | 6.4 | 17.7 | 0.00 | 0.00 | 0.00 | 76 | 1003.7 |
| 20260504110313 | 8 | 166 | 3.2 | 8.0 | 0.00 | 0.00 | 0.00 | 80 | 1003.6 |
| 20260504100313 | 8 | 182 | 3.2 | 6.4 | 0.00 | 0.00 | 0.00 | 78 | 1003.6 |
| 20260504081308 | 9 | 182 | 3.2 | 22.5 | 0.00 | 0.00 | 0.00 | 74 | 1004.3 |
| 20260504080308 | 9 | 167 | 3.2 | 17.7 | 0.00 | 0.00 | 0.00 | 74 | 1004.3 |
| 20260504070300 | 9 | 165 | 3.2 | 8.0 | 0.00 | 0.00 | 0.00 | 72 | 1005.1 |
| 20260504050246 | 10 | 174 | 8.0 | 19.3 | 0.00 | 0.00 | 0.00 | 68 | 1006.5 |
| 20260504045249 | 10 | 186 | 6.4 | 17.7 | 0.00 | 0.00 | 0.00 | 67 | 1006.7 |
| 20260504044248 | 10 | 155 | 8.0 | 19.3 | 0.00 | 0.00 | 0.00 | 67 | 1006.8 |
| 20260504043246 | 10 | 175 | 6.4 | 19.3 | 0.00 | 0.00 | 0.00 | 66 | 1006.7 |
| 20260504042249 | 10 | 240 | 6.4 | 17.7 | 0.00 | 0.00 | 0.00 | 66 | 1006.8 |
| 20260504041247 | 10 | 159 | 11.3 | 32.2 | 0.00 | 0.00 | 0.00 | 66 | 1007.0 |
| 20260504040246 | 10 | 173 | 8.0 | 22.5 | 0.00 | 0.00 | 0.00 | 66 | 1007.0 |
| 20260504035255 | 10 | 224 | 8.0 | 19.3 | 0.00 | 0.00 | 0.00 | 65 | 1007.1 |
| 20260504034252 | 10 | 155 | 11.3 | 29.0 | 0.00 | 0.00 | 0.00 | 65 | 1007.1 |
| 20260504033252 | 11 | 205 | 8.0 | 22.5 | 0.00 | 0.00 | 0.00 | 65 | 1007.2 |
| 20260504032300 | 11 | 171 | 8.0 | 22.5 | 0.00 | 0.00 | 0.00 | 65 | 1007.2 |
| 20260504031254 | 11 | 156 | 8.0 | 29.0 | 0.00 | 0.00 | 0.00 | 65 | 1007.3 |
| 20260504030253 | 11 | 161 | 8.0 | 22.5 | 0.00 | 0.00 | 0.00 | 64 | 1007.4 |
| 20260504025257 | 11 | 163 | 6.4 | 22.5 | 0.00 | 0.00 | 0.00 | 64 | 1007.5 |
| 20260504024256 | 11 | 197 | 8.0 | 25.7 | 0.00 | 0.00 | 0.00 | 63 | 1007.6 |
| 20260504023250 | 11 | 180 | 8.0 | 22.5 | 0.00 | 0.00 | 0.00 | 63 | 1007.6 |
| 20260504022251 | 11 | 164 | 8.0 | 22.5 | 0.00 | 0.00 | 0.00 | 63 | 1007.8 |
| 20260504021251 | 11 | 166 | 6.4 | 25.7 | 0.00 | 0.00 | 0.00 | 63 | 1007.8 |
| 20260504020248 | 11 | 135 | 6.4 | 22.5 | 0.00 | 0.00 | 0.00 | 63 | 1007.8 |
| 20260504015247 | 11 | 207 | 8.0 | 17.7 | 0.00 | 0.00 | 0.00 | 63 | 1007.8 |
| 20260504014246 | 11 | 207 | 6.4 | 14.5 | 0.00 | 0.00 | 0.00 | 62 | 1007.6 |
| 20260504013246 | 11 | 161 | 6.4 | 17.7 | 0.00 | 0.00 | 0.00 | 62 | 1007.7 |
| 20260504012248 | 11 | 248 | 6.4 | 14.5 | 0.00 | 0.00 | 0.00 | 61 | 1007.6 |
| 20260504011248 | 12 | 202 | 6.4 | 14.5 | 0.00 | 0.00 | 0.00 | 60 | 1007.7 |
| 20260504010242 | 12 | 156 | 6.4 | 22.5 | 0.00 | 0.00 | 0.00 | 59 | 1007.7 |
| 20260504005239 | 12 | 190 | 6.4 | 19.3 | 0.00 | 0.00 | 0.00 | 59 | 1007.7 |
| 20260504004241 | 13 | 188 | 8.0 | 22.5 | 0.00 | 0.00 | 0.00 | 58 | 1007.6 |
| 20260504003242 | 13 | 210 | 6.4 | 22.5 | 0.00 | 0.00 | 0.00 | 57 | 1007.5 |
| 20260504002239 | 13 | 259 | 6.4 | 22.5 | 0.00 | 0.00 | 0.00 | 55 | 1007.4 |
| 20260504001241 | 13 | 210 | 6.4 | 17.7 | 0.00 | 0.00 | 0.00 | 53 | 1007.3 |
| 20260504000241 | 13 | 238 | 6.4 | 19.3 | 0.00 | 0.00 | 0.00 | 52 | 1007.3 |
| 20260503235240 | 14 | 217 | 6.4 | 19.3 | 0.00 | 0.00 | 0.00 | 50 | 1007.2 |
| 20260503234243 | 14 | 257 | 6.4 | 22.5 | 0.00 | 0.00 | 0.00 | 50 | 1007.2 |
| 20260503233236 | 14 | 242 | 6.4 | 19.3 | 0.00 | 0.00 | 0.00 | 50 | 1007.1 |
| 20260503232235 | 14 | 126 | 6.4 | 19.3 | 0.00 | 0.00 | 0.00 | 49 | 1007.1 |
| 20260503231237 | 15 | 172 | 6.4 | 29.0 | 0.00 | 0.00 | 0.00 | 48 | 1007.2 |
| 20260503230234 | 15 | 246 | 6.4 | 19.3 | 0.00 | 0.00 | 0.00 | 47 | 1007.3 |
| 20260503225233 | 15 | 269 | 6.4 | 22.5 | 0.00 | 0.00 | 0.00 | 46 | 1007.5 |
| 20260503224233 | 15 | 240 | 6.4 | 22.5 | 0.00 | 0.00 | 0.00 | 45 | 1007.5 |
| 20260503223235 | 15 | 292 | 8.0 | 46.7 | 0.00 | 0.00 | 0.00 | 45 | 1007.5 |
| 20260503222235 | 15 | 236 | 11.3 | 43.5 | 0.00 | 0.00 | 0.00 | 45 | 1007.5 |
| 20260503221235 | 16 | 266 | 8.0 | 32.2 | 0.00 | 0.00 | 0.00 | 45 | 1007.4 |
| 20260503220229 | 15 | 343 | 8.0 | 22.5 | 0.00 | 0.00 | 0.00 | 45 | 1007.6 |
| 20260503215230 | 15 | 182 | 11.3 | 46.7 | 0.00 | 0.00 | 0.00 | 43 | 1007.5 |
| 20260503214229 | 16 | 184 | 8.0 | 29.0 | 0.00 | 0.00 | 0.00 | 42 | 1007.6 |
| 20260503213231 | 16 | 260 | 8.0 | 25.7 | 0.00 | 0.00 | 0.00 | 43 | 1007.6 |
| 20260503212228 | 16 | 261 | 11.3 | 25.7 | 0.00 | 0.00 | 0.00 | 41 | 1007.4 |
| 20260503211228 | 16 | 198 | 8.0 | 40.2 | 0.00 | 0.00 | 0.00 | 40 | 1007.5 |
| 20260503210227 | 16 | 74 | 8.0 | 22.5 | 0.00 | 0.00 | 0.00 | 42 | 1007.6 |
| 20260503205227 | 16 | 266 | 8.0 | 37.0 | 0.00 | 0.00 | 0.00 | 41 | 1007.6 |
| 20260503204228 | 16 | 168 | 8.0 | 29.0 | 0.00 | 0.00 | 0.00 | 42 | 1007.6 |
| 20260503203228 | 16 | 256 | 8.0 | 22.5 | 0.00 | 0.00 | 0.00 | 43 | 1007.8 |